Temp
9 9 9 9 9 8 7 6 6 6 6 6 7 7 7 8 8 7 8 8 7 6 7 8 9 8 8 7 8 9 8 8 8 7 9 9 9 10 10 11 11 11 12 12 13 16 14 16 16 16 16 19 19 19
9 10 10 9 8 8 6 6 7 7 6 6 7 7 7 8 8 8 7 8 7 6 7 7 8 8 7 7 8 8 8 9 9 7 7 9 9 10 11 11 13 11 10 10 11 13 15 16 14 15 16 16 16 17
9 10 10 9 8 6 6 7 7 7 7 7 7 8 8 8 8 8 8 8 7 7 7 7 9 9 9 8 8 8 9 8 8 8 6 8 10 9 8 11 12 13 13 11 10 15 13 14 15 15 14 13 14 15
10 10 9 9 7 7 7 7 7 7 7 7 8 8 8 8 8 8 8 8 8 7 7 9 10 10 9 9 8 9 9 9 8 8 7 7 9 7 8 9 9 10 11 9 10 11 11 14 14 13 13 13 14 14
11 11 10 10 10 11 10 7 7 7 7 7 7 7 8 9 9 8 8 8 8 7 7 8 9 10 10 9 8 8 8 8 7 7 7 7 7 7 6 7 10 9 9 9 9 10 10 10 11 12 12 12 13 13
11 11 11 10 11 12 10 8 7 7 7 9 10 10 10 10 9 9 8 8 8 8 7 8 10 10 9 9 8 7 7 6 6 6 6 6 6 7 6 7 8 9 9 9 10 11 11 10 10 11 11 11 12 13
12 11 11 11 12 13 12 10 8 8 10 11 11 10 10 10 10 9 9 9 8 8 6 9 10 11 9 9 7 7 6 5 6 5 5 5 6 6 6 7 7 9 9 9 10 11 10 10 9 11 12 13 14 14
12 11 12 13 13 13 12 13 13 12 11 11 11 11 11 10 10 10 9 8 8 8 8 9 11 11 10 9 9 7 6 6 6 6 6 6 5 5 6 8 10 9 9 9 10 10 10 10 10 10 11 11 12 12
12 12 13 15 14 13 13 14 13 13 12 11 10 10 10 10 10 10 9 9 8 8 9 10 11 12 9 8 7 8 6 9 6 7 7 6 6 8 8 10 10 9 8 9 10 10 10 9 10 11 11 11 11 11
12 13 14 15 15 14 14 14 13 13 12 11 11 10 10 11 10 9 8 8 8 7 7 10 9 11 10 10 11 10 8 10 10 9 7 7 8 10 10 10 9 9 9 9 9 9 8 9 9 11 12 11 10 11
13 13 15 16 15 15 15 14 14 13 12 11 10 10 10 10 10 9 11 10 10 10 9 9 9 11 10 11 11 10 11 11 7 9 11 9 9 10 10 9 10 9 9 8 9 8 8 8 8 9 10 10 10 10
14 15 15 16 16 16 15 15 14 13 13 13 12 11 10 9 10 12 12 12 10 11 11 11 11 11 11 11 11 12 11 11 11 9 10 9 9 9 8 9 10 9 9 9 8 8 8 8 7 8 8 8 8 8
15 16 16 17 17 16 15 15 15 14 13 13 13 13 12 11 13 14 10 13 13 13 15 15 13 11 11 10 11 11 14 13 10 9 9 10 10 9 8 9 9 10 9 9 9 8 8 8 7 7 7 7 7 7
16 17 17 17 17 16 16 16 16 15 13 11 13 12 14 14 15 15 13 13 13 14 14 14 13 13 11 12 12 14 12 11 10 11 9 10 10 8 8 9 9 10 11 9 9 8 8 7 7 7 7 6 6 6
16 17 18 17 17 17 17 17 16 14 13 12 15 14 16 15 14 15 15 14 14 13 13 13 13 12 13 14 12 12 12 11 11 11 10 9 9 8 8 9 9 9 10 10 9 9 8 7 7 6 6 6 6 5
17 17 17 16 18 18 18 18 16 15 14 15 17 17 15 15 14 14 14 13 13 13 12 13 14 14 14 12 13 12 10 9 10 10 9 9 10 9 9 9 9 10 10 10 9 9 9 8 8 7 7 6 6 6
17 17 17 17 18 19 19 19 16 14 17 19 18 16 14 14 14 14 14 14 14 13 14 13 15 15 12 13 13 11 10 9 9 8 8 9 10 9 9 10 10 11 11 11 11 10 10 9 9 8 8 8 8 7
16 16 17 16 18 19 18 18 18 19 19 17 16 16 15 14 15 15 14 13 13 13 13 15 13 13 12 13 11 10 9 8 7 8 8 10 10 11 11 10 12 12 12 12 12 11 10 10 10 9 10 10 10 9
17 18 18 17 17 16 15 19 19 18 18 18 16 15 15 15 15 15 14 15 15 14 12 12 13 12 10 9 9 9 8 8 8 8 8 11 12 12 12 13 13 12 12 12 12 11 12 11 11 12 11 11 10 10
18 18 17 17 16 15 17 17 20 17 18 16 16 16 15 15 15 14 14 14 13 12 13 13 12 10 9 9 8 8 8 8 8 8 8 8 12 13 12 13 12 12 12 12 13 13 12 12 11 12 11 11 10 9
17 17 17 17 17 15 15 16 17 17 16 16 16 16 16 15 15 15 14 12 13 12 12 11 10 10 11 12 13 12 10 10 8 7 8 8 11 12 12 13 13 12 11 11 10 11 11 10 10 11 11 10 10 9
17 17 17 18 17 17 16 18 16 16 16 16 16 16 16 16 14 14 13 14 12 12 11 10 10 10 10 10 11 13 14 14 13 12 12 12 8 9 10 11 11 10 10 10 11 11 11 11 12 11 11 10 9 9
17 17 17 18 18 12 15 18 18 17 17 17 16 19 16 15 13 12 15 14 13 12 13 13 14 15 13 14 13 13 14 12 10 11 11 11 11 12 11 11 11 10 9 11 11 12 11 11 11 11 10 9 9 8
16 16 16 16 16 14 17 17 17 17 16 18 18 18 15 12 12 12 13 12 11 12 12 13 14 12 12 12 9 11 13 12 12 12 12 11 9 9 10 10 11 10 10 11 11 11 11 11 10 10 10 9 8 8
11 12 13 9 14 18 19 19 17 16 17 16 18 17 13 11 12 12 12 12 12 13 13 13 12 10 10 10 10 12 13 13 11 8 11 11 11 10 9 10 10 10 10 10 10 10 10 9 9 9 9 8 8 8
10 15 15 18 19 19 16 16 16 15 14 15 15 13 12 12 13 13 11 11 12 13 11 11 11 10 10 12 10 10 12 13 13 10 12 11 11 11 7 6 7 9 9 9 9 9 9 9 9 9 8 8 8 8
11 17 17 15 16 15 14 14 14 13 15 15 15 15 14 12 10 12 10 10 10 13 15 15 14 13 11 12 14 14 14 13 13 12 12 11 11 11 10 9 8 8 9 9 8 8 8 8 8 8 8 8 8 7
17 18 19 18 16 15 14 14 14 15 16 14 14 12 12 12 11 11 10 14 14 15 15 15 15 15 14 15 15 14 14 14 13 12 11 11 11 10 10 9 9 9 8 8 8 8 7 7 7 7 7 7 7 7
17 18 19 19 16 14 14 14 15 15 14 14 13 13 11 10 11 11 14 15 15 15 14 14 15 15 14 13 12 12 12 12 11 9 8 8 9 9 9 9 8 8 8 7 7 7 7 7 7 7 7 7 7 7
19 19 19 20 20 18 16 14 15 15 13 12 11 11 11 11 13 14 16 16 15 14 13 13 13 13 12 10 9 9 9 10 10 9 6 6 7 8 9 9 8 8 7 7 7 7 7 7 7 7 7 6 6 6
19 20 19 19 20 20 18 16 15 14 13 11 12 11 11 11 14 16 16 16 14 14 13 13 13 13 12 10 9 8 6 7 8 8 7 7 7 7 7 7 8 8 7 7 7 7 7 7 6 6 6 6 6 6
19 19 18 18 18 19 19 17 15 14 14 13 12 12 12 12 13 13 16 15 14 13 13 13 12 10 10 10 9 8 8 7 7 7 6 6 6 6 6 6 7 6 6 6 5 5 5 6 6 6 6 6 6 6
21 20 19 20 20 22 20 19 18 14 14 13 13 13 13 14 14 13 15 15 14 14 13 12 12 11 10 9 8 8 7 7 7 6 5 5 5 5 5 6 6 5 5 5 5 5 6 6 6 6 6 5 5 5
Height
853 849 846 842 838 833 828 824 820 816 813 811 809 808 806 804 803 804 803 803 803 804 797 794 792 788 785 786 784 780 779 776 771 775 766 762 753 746 746 746 747 748 741 742 732 722 739 726 720 727 736 718 711 707
850 846 842 838 833 828 823 819 815 812 809 807 805 804 802 801 800 801 801 800 800 802 797 793 787 785 782 782 783 780 781 777 774 780 779 767 761 757 748 747 743 757 759 760 757 746 736 732 738 728 728 725 725 717
848 843 838 833 828 823 819 815 812 809 806 804 802 800 798 798 798 799 799 799 801 801 796 791 785 783 780 779 780 781 778 779 778 775 778 771 759 760 766 760 756 752 752 755 754 734 739 735 729 730 730 729 729 726
845 839 835 829 823 818 815 812 808 805 803 801 799 798 797 797 798 799 800 800 801 802 802 792 787 784 783 780 779 777 776 777 780 780 783 782 777 779 778 775 767 761 756 764 754 745 741 730 732 739 731 729 721 712
841 836 832 827 821 816 812 808 804 802 800 798 797 796 796 797 799 801 801 801 801 804 802 795 788 786 784 783 781 778 776 777 780 783 787 785 784 784 784 774 760 770 770 765 754 751 754 745 741 741 739 726 727 722
838 833 828 824 819 814 809 805 802 799 798 797 797 796 797 799 800 801 802 802 801 801 802 800 788 786 785 783 784 783 782 783 785 787 790 790 790 786 786 783 779 770 762 756 746 740 736 734 733 734 735 730 716 722
835 830 825 821 816 812 807 803 800 798 799 799 799 800 800 800 801 801 802 801 801 802 803 798 793 784 784 783 783 784 785 788 790 795 796 796 794 791 792 789 781 772 763 754 742 730 726 725 725 725 725 724 723 720
832 827 822 819 815 811 806 802 800 800 800 800 801 801 802 801 801 800 801 801 802 803 803 799 794 788 785 786 785 787 789 790 794 797 798 797 797 799 793 785 775 771 759 751 741 737 732 726 723 716 710 711 712 711
829 824 820 817 814 809 806 802 801 801 802 803 803 802 802 801 800 800 800 802 803 806 800 798 792 788 787 789 790 790 793 789 798 796 799 801 801 790 791 779 770 765 759 755 746 739 733 727 719 712 707 710 715 715
826 822 818 816 813 809 806 803 802 802 802 802 803 803 800 799 799 800 801 802 802 802 802 795 790 787 786 785 784 788 793 788 787 795 800 803 798 788 782 778 774 771 770 762 750 742 738 731 721 710 705 705 709 712
823 819 816 814 811 808 805 804 802 802 802 803 802 800 799 800 800 800 797 798 796 796 793 786 785 782 780 782 781 784 783 785 803 796 791 799 799 792 784 780 777 776 773 771 767 760 752 742 731 721 713 708 705 701
820 816 813 811 809 807 804 802 801 801 801 801 802 800 799 800 799 797 795 791 795 792 780 781 775 776 776 777 782 780 780 784 787 794 796 800 801 793 789 783 778 777 775 773 771 767 760 751 743 732 723 719 713 707
817 813 810 808 807 805 802 800 799 799 799 799 798 797 797 796 798 796 813 795 792 779 770 768 772 770 773 776 777 779 771 781 785 799 807 799 796 793 788 783 778 775 775 773 771 768 763 757 750 742 735 730 723 718
813 809 807 805 804 802 799 798 797 797 798 799 798 803 797 797 793 793 793 789 780 773 768 765 767 769 768 774 772 775 784 788 799 798 806 797 793 792 787 781 778 774 771 772 771 769 765 760 755 751 745 739 734 730
809 806 803 802 801 799 796 794 794 795 797 797 791 802 794 790 788 784 781 779 772 765 764 765 768 770 772 771 780 784 788 797 799 799 798 794 791 789 784 780 776 773 769 769 768 767 765 762 759 757 754 750 745 743
805 802 801 800 798 795 793 792 792 793 792 789 783 788 788 791 790 786 783 780 770 766 761 765 771 778 780 784 784 790 803 812 800 794 791 788 787 785 781 777 774 770 768 766 766 765 763 762 759 756 755 754 752 749
802 800 799 797 794 792 790 791 791 790 786 782 782 780 784 786 787 784 780 777 769 772 776 773 775 778 783 787 788 792 801 801 797 793 788 785 783 782 779 775 772 769 767 765 764 764 763 763 761 759 756 753 754 753
802 800 798 795 791 788 787 787 786 784 783 781 785 783 779 779 780 778 775 772 773 775 776 777 780 787 791 791 799 800 799 796 792 789 786 781 780 779 777 775 771 769 768 766 765 765 764 763 762 761 758 757 755 755
797 794 793 792 791 789 788 783 782 787 779 775 776 774 774 774 771 771 771 770 769 768 774 783 789 794 798 799 798 798 796 794 793 789 785 782 779 777 774 773 771 769 769 768 767 767 766 764 763 762 761 760 758 757
793 792 791 790 789 789 787 781 777 780 779 777 773 773 772 772 768 769 770 769 771 777 783 787 790 792 794 792 790 791 791 790 789 789 786 781 778 775 772 771 771 769 770 769 768 768 767 765 765 765 763 762 761 761
791 791 789 787 786 786 784 780 779 775 774 776 769 768 770 766 768 770 772 770 776 781 784 783 784 783 782 784 785 785 786 786 787 787 786 784 778 776 774 772 771 770 770 771 771 769 769 769 768 767 766 765 765 765
791 790 788 786 785 782 782 775 778 773 775 771 769 766 769 769 772 770 767 771 776 775 775 777 778 778 781 782 782 782 783 783 783 783 780 780 779 777 775 773 773 773 772 772 772 771 771 771 770 768 767 766 769 769
790 789 787 785 783 788 785 773 776 773 776 770 765 765 771 772 779 777 771 766 768 765 767 771 771 772 774 775 779 781 781 783 785 783 782 781 779 778 777 777 776 775 775 773 772 770 771 772 772 771 770 769 770 772
791 790 788 786 784 790 775 774 770 771 772 769 768 770 774 780 783 786 785 781 777 773 771 773 772 774 773 775 776 779 782 783 784 784 783 782 782 782 781 780 779 780 779 777 775 775 774 774 774 774 773 774 774 775
799 795 792 800 784 780 776 771 776 774 771 771 770 770 778 781 783 789 788 781 774 776 777 773 775 776 778 777 778 779 781 781 781 783 784 783 783 784 784 783 783 782 781 779 778 777 776 777 777 777 777 777 777 779
806 786 788 779 776 778 784 784 782 782 783 780 779 780 786 792 794 787 789 784 780 778 781 780 777 777 777 776 778 780 780 779 779 780 781 782 782 783 785 785 785 785 784 782 780 780 779 779 779 780 781 781 781 782
801 783 774 770 775 782 790 789 787 789 785 783 779 776 784 802 805 790 784 779 779 777 776 775 775 775 776 777 777 778 778 777 777 778 780 782 782 782 783 784 785 787 785 783 783 782 782 781 781 782 782 782 782 782
778 771 773 771 776 775 782 786 786 781 778 780 784 797 799 804 800 787 781 777 778 776 775 775 775 775 777 775 776 775 775 775 777 779 782 784 785 784 784 784 785 786 786 785 784 784 784 784 784 783 784 784 785 785
773 765 765 770 771 775 776 779 776 772 771 773 783 788 791 790 782 779 776 775 775 775 774 774 774 775 776 778 778 778 776 778 780 783 785 787 788 788 786 786 786 786 786 786 786 786 786 786 786 786 786 786 786 786
765 758 764 762 764 764 760 764 763 760 764 770 775 783 785 783 780 779 775 772 772 775 775 777 778 778 782 784 786 786 786 785 785 787 790 791 790 789 787 788 786 786 786 787 787 788 788 788 789 789 789 789 789 788
755 756 762 759 759 751 750 758 763 765 770 776 777 781 783 783 781 779 778 777 777 778 779 781 783 784 785 787 788 789 792 793 792 792 792 792 791 789 789 787 787 787 788 789 789 790 790 790 791 791 792 791 791 791
754 757 762 763 757 749 751 756 761 769 775 778 782 780 783 784 784 782 782 781 780 781 783 784 785 787 787 789 791 793 794 796 796 796 795 794 794 793 792 791 790 790 790 791 791 792 795 794 793 793 793 793 793 792
748 748 749 750 749 746 745 748 754 776 777 779 780 779 780 781 785 783 785 784 784 784 785 786 787 789 790 792 794 796 797 798 799 799 798 798 797 796 795 794 794 794 794 795 795 796 796 796 795 795 795 795 795 794
Wind_Speed
18 21 24 28 29 30 30 26 24 22 20 19 17 15 12 10 9 8 5 6 8 2 4 4 4 3 4 3 2 3 4 4 3 5 3 3 3 4 2 6 4 2 2 4 6 5 4 17 14 8 7 12 11 8
21 24 27 30 30 30 26 23 21 20 19 17 15 13 10 8 6 4 3 5 13 1 4 12 19 17 13 13 2 2 1 3 3 3 3 3 1 3 5 3 6 5 3 2 4 2 1 10 5 9 12 9 12 16
24 27 30 31 30 24 22 21 20 19 18 16 14 11 8 5 2 4 3 4 3 1 4 2 3 11 13 9 8 1 1 3 2 0 1 3 4 5 4 4 4 5 11 3 7 4 8 6 3 10 13 14 14 13
27 29 29 29 23 21 21 20 20 19 17 14 10 7 4 1 2 4 2 3 1 1 1 3 5 5 13 7 9 2 4 2 3 2 2 2 2 5 3 3 2 7 8 10 6 4 11 6 1 11 18 17 18 20
27 29 28 24 22 22 21 21 20 17 13 9 8 4 4 6 7 7 5 4 1 1 1 4 14 3 9 9 13 12 10 4 1 2 1 2 1 2 2 2 4 9 5 4 5 14 14 20 21 18 13 18 15 14
28 27 25 23 21 22 21 21 19 13 9 8 8 10 10 10 10 5 1 2 1 2 2 4 4 3 5 7 11 11 6 3 2 2 2 2 4 4 3 3 8 13 15 14 8 11 13 19 17 18 16 17 16 15
27 25 23 21 21 21 22 23 16 6 7 10 9 8 7 5 3 1 1 2 4 2 2 3 4 2 2 2 4 3 6 3 2 2 2 2 3 4 2 2 11 18 15 15 17 14 5 9 8 7 7 9 11 15
25 24 21 19 20 21 22 20 12 7 8 8 9 7 7 7 6 2 6 7 5 2 2 2 3 3 3 3 3 4 3 2 4 2 1 2 2 1 1 6 11 17 15 19 21 18 12 11 9 13 13 11 12 9
23 22 19 15 17 19 21 16 8 4 5 4 3 1 3 3 3 3 5 5 2 1 1 2 2 2 1 1 1 1 2 2 1 2 2 2 2 3 3 7 14 14 19 21 22 22 21 18 16 12 7 7 11 7
23 20 18 13 13 17 18 13 6 3 3 3 3 2 2 2 3 6 3 1 1 2 2 3 2 3 4 2 1 2 1 1 2 3 3 2 3 6 6 5 5 7 10 18 22 24 22 21 17 15 9 5 7 7
21 19 16 12 10 13 16 11 5 1 1 1 2 2 2 5 1 0 2 2 2 2 3 4 5 2 1 2 2 3 2 2 2 1 2 2 4 7 11 9 2 2 5 9 12 15 17 20 18 15 13 13 7 7
20 18 16 11 8 10 15 11 6 3 2 2 10 5 3 2 1 2 2 2 1 4 3 3 5 5 2 3 2 2 2 2 2 3 3 2 4 7 7 9 7 3 3 5 9 10 16 20 23 19 16 17 19 23
20 19 16 10 6 10 14 12 8 7 8 4 1 2 2 2 3 3 4 5 4 3 3 2 3 3 2 2 2 2 3 2 4 4 1 3 5 6 7 6 8 4 6 4 7 12 15 18 26 25 21 27 29 29
21 20 13 5 9 15 15 13 7 4 2 2 3 5 2 5 3 2 3 3 5 3 6 2 1 2 2 3 1 4 2 4 3 3 2 3 4 6 7 6 5 8 2 5 4 8 11 14 17 22 24 27 28 27
22 20 8 4 17 18 15 12 6 3 3 3 2 1 2 3 2 2 2 4 5 4 3 2 3 3 4 4 3 3 4 3 2 1 3 3 4 5 6 6 7 7 6 5 8 5 4 4 9 13 17 21 27 28
23 13 2 13 21 19 12 6 4 3 3 3 2 2 1 3 4 4 3 4 4 5 3 3 3 3 4 2 4 2 3 2 3 3 4 2 2 4 6 7 8 10 7 8 13 10 9 4 2 6 7 10 15 20
19 2 8 20 22 18 6 3 4 4 3 3 2 1 3 2 4 3 1 3 5 4 3 2 3 1 1 2 1 2 2 2 3 3 3 5 4 4 6 9 11 12 8 11 6 13 9 9 5 1 2 6 4 5
8 17 17 15 16 13 2 6 3 1 4 3 3 3 2 3 2 2 2 2 3 3 3 1 3 5 3 2 2 2 1 3 3 3 4 3 3 7 10 9 8 8 9 17 9 11 8 4 4 1 6 4 9 6
26 19 10 5 9 5 2 3 3 2 4 2 2 2 2 3 3 3 2 0 3 2 3 3 4 1 1 2 3 2 1 1 2 3 3 7 6 7 7 5 7 6 11 14 12 12 16 18 7 11 11 13 12 13
11 8 2 9 6 1 3 3 5 2 3 3 1 2 3 3 3 3 2 1 3 3 4 2 2 3 4 3 3 3 3 2 2 4 5 6 14 17 11 4 1 7 7 12 11 12 13 17 11 11 12 13 13 13
5 2 11 5 2 7 3 2 3 3 2 1 3 2 3 1 2 2 2 2 3 2 2 3 3 4 6 8 9 8 5 3 2 4 4 4 7 12 13 10 4 11 12 8 5 7 10 9 14 9 10 13 15 18
3 9 3 3 3 3 2 5 4 3 0 3 2 2 2 2 2 2 2 2 3 4 4 4 4 4 3 4 9 12 9 9 10 12 5 4 4 6 10 11 12 9 12 8 5 6 6 10 9 11 15 13 15 17
7 4 3 3 3 3 6 1 0 3 2 3 1 1 2 2 1 6 3 2 2 3 6 5 7 8 9 10 6 11 11 4 4 8 9 9 14 17 18 19 23 19 16 20 4 9 14 10 10 15 21 23 21 19
5 2 2 2 3 4 3 3 3 2 4 3 2 1 2 3 2 2 4 3 5 6 2 2 4 1 3 6 4 6 9 13 13 11 10 10 11 16 18 18 19 18 18 18 17 16 12 13 14 17 16 21 20 17
3 5 3 5 4 2 3 2 3 1 4 2 3 1 2 2 3 3 2 3 3 2 2 2 8 5 1 2 7 12 13 13 14 6 6 8 11 15 15 16 14 12 13 14 14 15 13 18 19 18 16 16 19 16
1 4 6 4 2 2 2 2 3 4 4 4 3 3 2 4 3 4 2 2 3 2 0 3 1 0 1 3 4 6 13 10 11 9 6 8 10 7 9 5 7 11 15 16 16 18 17 13 13 12 16 15 13 13
2 5 4 4 3 5 3 3 2 1 3 1 3 3 4 3 4 3 3 3 3 8 10 7 4 3 2 10 10 8 10 9 7 10 8 10 9 8 14 11 9 9 10 12 13 14 13 11 14 9 10 10 9 11
5 3 4 2 3 3 4 3 3 3 2 2 5 4 7 3 4 3 3 4 6 9 8 5 2 4 4 8 4 4 5 7 5 9 14 16 12 13 12 11 12 6 8 9 11 13 14 14 14 11 12 13 10 9
4 3 2 3 3 4 6 5 3 3 2 3 4 5 6 3 3 3 6 11 8 12 9 9 6 4 10 26 24 23 21 17 19 8 8 4 6 8 11 11 12 10 7 8 7 9 7 10 11 9 7 8 5 8
5 2 1 4 2 5 5 6 4 2 3 4 4 3 0 2 4 5 13 16 8 12 23 23 23 24 18 19 18 23 25 24 23 19 6 4 7 12 12 5 8 11 10 10 9 8 8 10 10 9 7 8 10 8
3 3 1 3 3 4 4 9 12 9 4 4 2 3 2 1 3 9 17 20 24 23 24 22 21 17 18 19 17 16 15 19 19 16 12 13 14 15 16 16 11 10 11 11 11 10 11 11 7 8 9 7 6 8
3 5 5 4 4 3 7 7 5 4 4 2 1 1 2 2 1 3 8 14 20 20 19 19 19 20 20 22 23 23 22 20 20 18 15 14 14 13 16 19 17 14 11 8 11 12 6 7 8 6 5 6 6 7
2 3 4 1 2 3 2 2 3 3 2 3 3 4 4 3 2 1 11 16 12 15 19 20 20 20 20 21 22 21 19 19 17 16 14 15 17 18 15 15 14 12 13 11 9 7 5 7 8 9 6 5 8 9
Wind_Direction
330 333 330 328 329 331 329 327 326 326 325 324 328 323 319 310 291 274 268 266 207 213 279 258 284 266 252 209 246 338 336 347 328 28 352 321 322 344 35 41 53 78 352 5 328 66 47 338 14 54 334 7 15 12
333 331 330 330 332 331 330 329 328 328 326 330 330 330 326 318 306 263 261 283 244 222 274 292 290 299 264 264 278 238 160 277 350 32 350 300 345 314 309 69 14 55 117 269 16 191 155 344 25 329 4 8 1 352
333 332 333 334 331 331 332 331 331 328 331 335 337 337 332 316 281 204 216 204 142 304 286 308 299 332 18 286 240 286 115 54 286 32 292 325 342 358 26 32 353 7 4 58 333 111 16 325 307 359 358 347 339 340
333 334 337 337 337 338 338 333 329 330 336 344 349 350 349 174 190 166 185 168 145 77 12 300 329 343 2 79 63 167 225 155 113 4 14 349 338 18 329 293 6 21 354 321 278 300 333 186 283 353 322 324 330 336
337 337 339 339 347 347 344 339 336 339 348 354 351 4 110 135 137 126 71 141 44 52 232 288 319 343 11 35 42 50 72 67 71 102 59 36 294 306 286 316 29 355 323 328 283 296 274 267 277 291 307 309 304 319
338 338 338 342 345 346 344 344 343 351 359 41 71 97 117 128 134 148 119 190 189 353 72 355 327 3 53 70 67 44 32 45 48 37 29 26 341 343 21 40 324 328 326 312 289 292 264 259 268 272 268 271 288 281
340 340 340 344 345 348 351 349 353 31 92 99 106 109 125 136 154 188 172 162 160 110 59 332 327 311 354 335 12 37 49 64 56 80 51 359 355 11 37 311 314 353 339 347 346 338 298 255 256 264 257 268 268 259
341 341 341 343 343 350 356 356 22 114 129 127 123 119 119 131 126 77 91 128 133 89 58 342 287 326 13 348 8 353 16 36 34 64 26 13 348 31 7 321 355 8 358 3 359 3 333 278 276 281 279 251 254 256
344 341 341 343 344 350 1 4 36 98 158 159 159 178 235 235 208 163 140 141 157 271 148 251 236 274 114 141 95 32 12 28 53 57 36 357 318 43 266 306 356 8 17 4 3 7 3 356 332 312 289 200 213 231
342 342 340 340 343 352 4 4 21 76 183 220 279 264 294 161 129 131 110 160 193 243 265 243 154 259 150 156 197 160 151 323 12 43 131 47 4 316 342 339 337 19 6 13 9 8 360 356 350 343 310 227 215 221
341 341 339 333 332 350 355 1 341 21 244 283 251 251 143 148 203 216 252 201 164 263 205 239 189 237 249 156 195 180 182 174 77 285 63 46 7 329 330 329 341 41 28 6 11 10 9 4 10 12 18 30 29 29
340 339 335 327 321 343 346 347 330 254 241 308 296 276 178 194 273 280 274 306 158 241 231 186 235 192 208 119 114 227 234 118 83 141 59 31 294 302 319 320 322 153 76 45 8 14 20 18 14 23 30 28 31 38
336 338 334 322 321 340 337 334 311 297 281 282 256 274 110 251 21 64 325 311 324 278 268 274 311 155 84 120 204 160 57 50 111 53 337 20 276 306 317 314 319 15 122 75 35 26 29 38 31 26 26 30 35 37
336 337 332 323 344 341 331 325 315 286 194 162 193 323 159 346 8 256 216 235 255 257 300 261 232 161 189 130 39 57 22 45 68 24 338 260 295 296 310 314 334 323 71 128 79 52 39 48 51 42 36 39 35 34
335 331 314 313 339 340 331 313 306 207 200 241 140 300 8 255 264 267 314 345 297 275 322 23 41 69 3 46 68 61 46 40 130 209 235 259 277 298 309 322 324 327 332 141 144 127 96 57 72 66 59 58 62 46
335 328 310 331 333 340 327 297 273 209 239 226 201 64 308 52 312 340 318 304 296 312 2 51 71 58 12 77 50 66 82 228 258 244 245 231 250 283 301 315 317 327 353 9 165 166 147 182 122 105 97 67 73 78
337 261 315 326 324 335 301 224 203 225 231 269 234 143 152 169 212 240 239 282 319 28 333 43 65 156 83 79 61 79 135 220 259 295 280 227 221 249 276 303 318 348 3 11 67 191 168 163 155 94 25 124 114 115
314 309 315 317 323 335 267 211 246 246 263 251 97 267 194 184 202 270 261 295 54 353 27 356 103 36 32 52 348 294 243 266 269 310 316 283 306 281 273 273 323 17 43 50 52 55 87 151 198 12 64 83 117 167
315 316 336 318 334 322 303 244 167 243 260 203 158 257 161 222 223 186 187 6 108 100 86 48 63 103 210 200 182 225 243 290 278 300 295 309 354 341 345 285 12 96 85 78 68 60 48 42 93 79 64 65 68 70
311 321 349 320 304 256 285 274 182 193 271 245 246 242 193 209 205 171 170 153 108 71 44 82 178 208 169 214 178 178 195 232 36 356 328 325 329 2 354 278 326 123 126 98 77 53 43 44 91 76 60 73 91 65
341 2 326 304 229 214 248 282 303 229 258 239 256 183 242 288 136 159 204 187 73 143 160 180 173 204 192 171 166 167 198 228 236 201 243 288 308 12 1 355 111 82 93 132 111 71 53 56 72 77 56 102 99 79
332 319 285 256 262 207 253 237 184 252 259 239 310 205 220 243 211 221 213 96 161 203 170 162 179 178 198 201 203 195 203 249 288 321 339 64 28 11 353 4 98 70 61 68 163 109 82 104 67 45 42 58 115 78
334 325 268 253 233 46 255 297 200 245 225 256 10 189 332 100 204 330 275 172 223 202 151 156 185 200 207 219 204 200 198 231 32 65 51 50 45 44 77 70 58 49 35 23 84 124 114 113 81 67 87 98 100 82
303 275 286 281 166 241 298 246 216 283 339 310 278 275 12 97 32 330 334 336 334 333 75 115 233 321 357 99 98 132 129 107 99 69 55 62 56 59 78 63 56 49 38 38 62 61 79 128 91 89 96 102 104 94
51 287 110 288 269 283 266 335 18 279 246 251 325 229 125 32 79 10 306 260 216 138 264 87 79 73 135 135 125 135 137 131 126 120 71 94 90 92 79 68 57 33 33 48 55 54 61 105 87 73 78 108 100 99
147 239 159 234 240 165 46 296 320 313 354 344 319 78 57 58 20 257 244 323 330 53 38 254 174 143 334 135 145 156 168 155 141 137 143 136 119 98 121 97 61 35 60 67 65 59 58 99 92 79 93 91 104 109
273 268 230 221 99 86 63 270 282 331 275 281 326 12 61 38 270 284 282 259 232 195 203 208 176 180 173 122 114 138 183 199 185 183 154 137 113 117 133 120 107 94 75 71 65 53 47 88 111 102 96 85 79 81
242 257 206 190 146 188 138 181 241 233 255 67 106 144 177 182 242 245 237 302 263 191 200 203 160 183 123 70 318 240 209 187 120 143 127 109 101 123 117 125 128 94 89 78 73 72 67 66 64 88 87 76 101 84
247 252 100 274 158 189 191 172 207 225 235 119 122 168 181 227 258 236 279 296 273 226 225 193 165 121 80 78 63 62 76 95 89 91 93 100 92 89 105 128 150 127 110 111 86 60 65 64 54 75 93 80 54 79
256 186 265 294 260 237 208 174 202 200 93 106 114 81 160 275 280 326 0 13 36 75 77 78 84 87 87 88 80 67 69 75 78 86 90 77 55 54 62 85 132 154 145 122 113 95 92 87 89 78 85 72 57 81
166 152 184 257 261 266 132 99 79 62 54 36 29 102 143 259 334 23 43 87 101 94 90 84 86 91 93 112 113 99 69 65 68 66 65 65 61 63 63 60 96 90 90 103 88 82 101 118 95 70 88 78 52 34
186 180 182 223 257 276 134 143 151 109 152 115 19 99 104 76 55 320 48 98 106 107 111 109 101 101 110 108 107 100 96 85 74 66 65 67 57 59 66 69 85 97 104 109 118 117 53 92 93 96 71 47 44 69
223 221 213 224 233 243 239 125 107 97 139 170 161 184 183 134 82 309 60 65 110 132 125 111 114 119 122 116 113 110 100 92 80 70 67 76 72 62 63 66 74 90 84 92 105 95 69 77 72 76 81 61 62 55